GFSSW_prec_precacc_318.txt.gz
Total_Precipitation_Accumulation
0.12 0.14 0.18 0.17 0.17 0.19 0.21 0.20 0.20 0.19 0.18 0.17 0.17 0.16 0.18 0.22 0.16 0.09 0.06 0.07 0.19 0.20 0.08 0.01 0.02 0.04 0.24 0.34 0.65 1.10 1.00 0.52 0.36 0.14 0.05 0.09 0.12 0.09 0.07 0.07 0.09 0.13 0.08 0.25 0.49
0.10 0.14 0.18 0.16 0.18 0.20 0.20 0.18 0.16 0.17 0.18 0.20 0.23 0.26 0.33 0.31 0.09 0.06 0.10 0.14 0.10 0.14 0.02 0.02 0.02 0.06 0.18 0.27 0.66 1.14 0.68 0.15 0.11 0.27 0.21 0.23 0.25 0.20 0.18 0.15 0.15 0.14 0.19 0.52 0.68
0.13 0.15 0.15 0.17 0.20 0.20 0.19 0.19 0.18 0.17 0.16 0.20 0.26 0.39 0.51 0.22 0.05 0.07 0.11 0.07 0.14 0.07 0.02 0.01 0.04 0.16 0.17 0.26 0.42 0.56 0.39 0.09 0.05 0.13 0.44 0.50 0.43 0.31 0.36 0.27 0.21 0.22 0.44 0.62 0.91
0.18 0.19 0.16 0.18 0.23 0.21 0.20 0.18 0.19 0.21 0.22 0.22 0.31 0.47 0.39 0.19 0.07 0.03 0.12 0.07 0.06 0.03 0.04 0.04 0.11 0.23 0.20 0.20 0.21 0.39 0.10 0.15 0.10 0.13 0.31 0.57 0.68 0.42 0.42 0.32 0.20 0.29 0.59 0.88 1.11
0.21 0.23 0.26 0.28 0.26 0.23 0.18 0.17 0.18 0.23 0.25 0.25 0.36 0.52 0.39 0.19 0.05 0.00 0.00 0.02 0.03 0.05 0.07 0.08 0.13 0.19 0.29 0.17 0.23 0.29 0.13 0.24 0.24 0.28 0.33 0.46 0.55 0.74 0.52 0.36 0.29 0.32 0.47 0.93 1.19
0.28 0.33 0.33 0.34 0.34 0.29 0.22 0.25 0.27 0.28 0.26 0.26 0.44 0.51 0.42 0.18 0.00 0.00 0.00 0.00 0.01 0.05 0.14 0.18 0.17 0.20 0.30 0.23 0.31 0.19 0.15 0.18 0.26 0.43 0.47 0.63 0.50 0.77 0.66 0.56 0.31 0.30 0.32 0.80 1.09
0.28 0.33 0.42 0.39 0.31 0.32 0.39 0.39 0.34 0.27 0.28 0.37 0.51 0.48 0.41 0.08 0.00 0.00 0.01 0.04 0.04 0.07 0.07 0.19 0.29 0.39 0.33 0.31 0.20 0.19 0.32 0.33 0.23 0.35 0.52 0.82 0.76 0.62 0.55 0.94 0.58 0.19 0.25 0.65 1.10
0.31 0.35 0.38 0.37 0.46 0.47 0.38 0.32 0.40 0.42 0.42 0.43 0.37 0.52 0.35 0.00 0.00 0.00 0.00 0.03 0.08 0.13 0.15 0.22 0.43 0.39 0.35 0.31 0.19 0.30 0.62 0.54 0.27 0.35 0.66 1.29 1.05 0.22 0.46 1.12 0.85 0.19 0.24 0.48 0.66
0.43 0.40 0.37 0.38 0.40 0.46 0.45 0.45 0.41 0.38 0.45 0.44 0.46 0.56 0.21 0.00 0.00 0.00 0.00 0.00 0.05 0.16 0.21 0.31 0.52 0.52 0.46 0.49 0.53 0.53 0.42 0.17 0.17 0.25 0.70 1.13 0.89 0.38 0.42 1.06 1.12 0.48 0.24 0.44 0.66
0.46 0.46 0.44 0.43 0.50 0.68 0.72 0.61 0.47 0.45 0.32 0.45 0.75 0.93 0.18 0.00 0.00 0.00 0.00 0.01 0.03 0.17 0.39 0.41 0.59 0.70 0.70 0.88 0.65 0.24 0.20 0.13 0.19 0.17 0.41 0.63 0.61 0.42 0.50 0.98 1.39 0.90 0.44 0.86 1.35
0.49 0.54 0.56 0.63 0.66 0.88 1.05 0.93 0.96 0.84 0.72 0.36 0.31 0.26 0.06 0.03 0.05 0.02 0.01 0.02 0.05 0.20 0.19 0.30 0.58 0.58 0.35 0.42 0.21 0.15 0.21 0.21 0.08 0.18 0.39 0.46 0.39 0.61 0.58 1.07 1.36 1.17 0.77 1.09 1.42
0.63 0.68 0.87 0.98 0.92 0.94 1.00 0.85 0.67 1.04 0.68 0.18 0.12 0.10 0.05 0.04 0.12 0.09 0.11 0.17 0.11 0.09 0.15 0.43 0.41 0.04 0.07 0.26 0.38 0.28 0.24 0.13 0.11 0.05 0.28 0.36 0.38 0.67 0.74 1.26 1.48 1.58 1.36 1.15 1.12
0.94 0.99 1.16 1.26 1.34 1.08 0.74 0.57 0.52 0.82 1.22 0.27 0.07 0.05 0.01 0.08 0.11 0.12 0.16 0.33 0.17 0.11 0.14 0.20 0.13 0.04 0.10 0.38 0.61 0.48 0.35 0.13 0.09 0.08 0.22 0.32 0.65 0.84 0.78 1.11 0.80 1.03 1.49 1.71 1.41
1.11 1.18 1.39 1.48 1.49 0.87 0.85 0.78 0.78 1.41 2.41 0.48 0.04 0.06 0.01 0.09 0.16 0.06 0.13 0.40 0.56 0.14 0.14 0.22 0.07 0.15 0.19 0.23 0.45 0.61 0.23 0.21 0.16 0.47 0.70 0.39 1.02 0.45 0.46 0.66 0.24 0.46 0.91 1.66 1.22
1.48 1.55 1.77 2.09 1.46 1.35 1.05 1.08 1.55 2.55 3.58 0.38 0.07 0.04 0.03 0.15 0.13 0.08 0.18 0.52 0.67 0.45 0.29 0.19 0.04 0.25 0.32 0.17 0.24 0.37 0.24 0.27 0.34 0.72 0.72 0.56 1.14 0.31 0.22 0.28 0.19 0.37 0.65 1.13 1.63
1.83 2.35 2.21 2.22 2.19 1.29 1.09 1.87 2.73 4.20 3.15 0.34 0.17 0.12 0.18 0.16 0.06 0.25 0.47 0.72 0.78 0.83 0.66 0.20 0.07 0.15 0.20 0.10 0.16 0.33 0.82 0.64 0.86 1.20 2.20 0.81 0.66 0.27 0.34 0.37 0.22 0.47 0.59 0.65 1.43
2.37 2.61 2.87 2.30 2.00 1.60 2.26 3.62 4.85 3.74 0.88 0.46 0.25 0.25 0.29 0.26 0.18 0.31 1.12 1.24 1.05 1.47 1.24 0.54 0.16 0.04 0.18 0.29 0.49 0.94 1.51 2.48 2.50 2.68 2.09 0.46 0.42 0.44 0.27 0.23 0.47 0.69 0.75 0.81 1.30
2.29 2.47 2.02 1.81 1.65 2.36 3.65 4.94 5.19 1.13 0.35 0.27 0.20 0.27 0.35 0.40 0.35 0.20 0.51 0.94 0.95 1.02 1.32 0.74 0.39 0.10 0.17 0.23 0.47 0.98 1.50 1.95 1.47 1.11 0.58 0.33 0.59 0.30 0.15 0.19 0.48 0.67 0.80 0.80 0.79
2.36 2.15 2.17 1.71 1.60 2.74 4.62 5.58 2.37 0.58 0.33 0.26 0.24 0.47 0.46 0.67 0.91 0.61 0.31 0.56 0.94 1.26 1.71 1.39 0.35 0.08 0.04 0.04 0.20 0.62 1.21 1.04 0.94 0.49 0.51 0.32 0.21 0.18 0.07 0.07 0.17 0.37 0.69 0.88 0.81
2.77 2.74 2.59 1.97 2.42 3.46 4.90 3.44 0.85 0.26 0.37 0.40 0.69 0.57 0.61 0.61 1.02 1.22 0.83 0.60 0.73 0.97 1.53 1.70 1.33 0.19 0.22 0.26 0.25 0.41 0.51 1.04 1.70 1.71 0.87 0.22 0.16 0.19 0.16 0.17 0.13 0.30 0.62 0.96 0.80
3.57 3.84 2.32 2.37 3.63 4.79 4.51 1.48 0.32 0.16 0.42 0.88 0.60 0.66 0.51 0.80 0.98 1.20 1.42 0.67 0.67 0.64 0.96 2.02 1.91 0.79 0.47 0.52 0.33 0.49 1.08 0.96 1.36 1.13 0.97 0.50 0.26 0.43 0.47 0.46 0.37 0.48 0.73 1.23 1.21
4.10 3.85 2.17 2.71 4.69 4.37 1.97 0.59 0.32 0.25 0.52 0.77 0.79 0.60 0.56 0.62 1.27 1.29 0.92 1.03 0.68 0.64 0.81 1.19 2.20 1.36 0.53 0.41 0.32 0.31 0.74 1.01 1.35 1.20 0.80 0.76 0.42 0.39 0.44 0.47 0.44 0.62 0.70 1.23 1.45
4.79 3.06 2.99 3.16 3.75 2.27 0.97 0.55 0.63 0.43 0.62 0.86 0.65 0.61 0.51 0.53 1.28 0.79 0.80 0.59 0.78 0.92 1.27 1.33 2.15 1.95 1.44 1.38 0.68 0.66 0.37 0.62 0.74 0.87 0.79 0.81 0.40 0.21 0.31 0.36 0.39 0.74 0.67 1.17 1.37
5.57 4.05 3.91 4.33 2.48 1.16 1.09 0.96 0.76 0.43 0.54 0.54 0.49 0.52 0.69 0.51 0.69 0.84 0.54 0.47 0.49 0.94 1.16 1.33 1.56 1.37 1.10 1.47 1.41 1.12 0.81 0.52 0.71 0.80 0.71 0.53 0.25 0.18 0.18 0.27 0.31 0.53 0.83 1.23 1.40
5.92 3.60 2.27 2.85 1.99 1.25 1.69 1.40 0.51 0.63 0.73 0.71 0.63 0.48 0.85 1.13 0.69 0.63 0.57 0.63 0.61 0.87 1.28 1.77 1.49 0.84 0.25 0.23 0.51 0.60 0.74 0.67 0.75 0.52 0.65 0.38 0.31 0.24 0.33 0.37 0.48 0.67 0.85 1.03 1.15
5.21 2.59 2.00 1.43 0.91 1.58 2.13 1.42 0.56 0.88 1.02 0.68 0.72 0.41 0.60 0.77 0.80 0.88 1.05 1.03 1.09 1.14 1.75 1.88 1.60 0.69 0.43 0.19 0.30 0.35 0.37 0.55 0.63 0.33 0.21 0.23 0.28 0.21 0.25 0.28 0.48 0.73 0.88 0.97 0.97
3.52 2.21 2.81 2.85 1.62 1.90 1.64 1.01 0.94 1.10 0.93 0.33 0.40 0.78 0.55 0.41 0.43 0.71 1.01 1.06 1.15 1.37 1.61 1.74 1.55 0.90 0.82 0.38 0.82 0.94 0.69 0.50 0.49 0.48 0.30 0.31 0.27 0.12 0.16 0.24 0.70 0.85 0.95 1.01 0.99

GFSSW_prec_precacc_321.txt.gz
Total_Precipitation_Accumulation
0.12 0.14 0.18 0.18 0.18 0.20 0.23 0.22 0.20 0.19 0.18 0.17 0.17 0.17 0.19 0.22 0.16 0.09 0.06 0.07 0.19 0.20 0.08 0.01 0.02 0.04 0.24 0.34 0.65 1.10 1.00 0.52 0.36 0.14 0.05 0.09 0.12 0.09 0.07 0.07 0.09 0.13 0.08 0.25 0.49
0.10 0.14 0.18 0.17 0.18 0.21 0.22 0.20 0.18 0.18 0.18 0.20 0.23 0.26 0.33 0.31 0.09 0.06 0.10 0.14 0.10 0.14 0.02 0.02 0.02 0.06 0.18 0.27 0.66 1.14 0.68 0.15 0.11 0.27 0.21 0.23 0.25 0.20 0.18 0.15 0.15 0.14 0.19 0.52 0.68
0.13 0.15 0.15 0.17 0.20 0.20 0.19 0.20 0.19 0.19 0.17 0.21 0.26 0.39 0.51 0.22 0.05 0.07 0.11 0.07 0.14 0.07 0.02 0.01 0.04 0.16 0.17 0.26 0.42 0.56 0.39 0.09 0.05 0.13 0.44 0.50 0.43 0.31 0.36 0.27 0.21 0.22 0.44 0.62 0.91
0.18 0.19 0.16 0.18 0.23 0.21 0.20 0.18 0.20 0.21 0.24 0.24 0.33 0.47 0.39 0.19 0.07 0.03 0.12 0.07 0.06 0.03 0.04 0.04 0.11 0.23 0.20 0.20 0.21 0.39 0.10 0.15 0.10 0.13 0.31 0.57 0.68 0.42 0.42 0.32 0.20 0.29 0.59 0.88 1.11
0.21 0.23 0.26 0.28 0.26 0.24 0.18 0.17 0.18 0.23 0.26 0.28 0.38 0.52 0.39 0.19 0.05 0.00 0.00 0.02 0.03 0.05 0.07 0.08 0.13 0.19 0.29 0.17 0.23 0.29 0.13 0.24 0.24 0.28 0.33 0.46 0.55 0.74 0.52 0.36 0.29 0.32 0.47 0.93 1.19
0.28 0.33 0.33 0.34 0.34 0.29 0.23 0.25 0.27 0.28 0.26 0.28 0.48 0.52 0.42 0.18 0.00 0.00 0.00 0.00 0.01 0.05 0.14 0.18 0.17 0.20 0.30 0.23 0.31 0.19 0.15 0.18 0.26 0.43 0.47 0.63 0.50 0.77 0.66 0.56 0.31 0.30 0.32 0.80 1.09
0.28 0.33 0.42 0.39 0.31 0.32 0.40 0.40 0.35 0.27 0.28 0.38 0.52 0.48 0.41 0.08 0.00 0.00 0.01 0.04 0.04 0.07 0.07 0.19 0.29 0.39 0.33 0.31 0.20 0.19 0.32 0.33 0.23 0.35 0.52 0.82 0.76 0.62 0.55 0.94 0.58 0.19 0.25 0.65 1.10
0.31 0.35 0.38 0.37 0.46 0.47 0.38 0.32 0.41 0.42 0.42 0.43 0.37 0.52 0.35 0.00 0.00 0.00 0.00 0.03 0.08 0.13 0.15 0.22 0.43 0.39 0.35 0.31 0.19 0.30 0.62 0.54 0.27 0.35 0.66 1.29 1.05 0.22 0.46 1.12 0.85 0.19 0.24 0.48 0.66
0.43 0.40 0.37 0.38 0.40 0.46 0.46 0.46 0.42 0.39 0.46 0.45 0.46 0.56 0.21 0.00 0.00 0.00 0.00 0.00 0.05 0.16 0.21 0.31 0.52 0.52 0.46 0.49 0.53 0.53 0.42 0.17 0.17 0.25 0.70 1.13 0.89 0.38 0.42 1.06 1.12 0.48 0.24 0.44 0.66
0.46 0.46 0.44 0.43 0.50 0.68 0.72 0.61 0.47 0.46 0.33 0.45 0.75 0.93 0.18 0.00 0.00 0.00 0.00 0.01 0.03 0.17 0.39 0.41 0.59 0.70 0.70 0.88 0.65 0.24 0.20 0.13 0.19 0.17 0.41 0.63 0.61 0.42 0.50 0.98 1.39 0.90 0.44 0.86 1.35
0.49 0.54 0.56 0.63 0.66 0.88 1.05 0.93 0.96 0.84 0.72 0.36 0.31 0.26 0.06 0.03 0.05 0.02 0.01 0.02 0.05 0.20 0.19 0.30 0.58 0.58 0.35 0.42 0.21 0.15 0.21 0.21 0.08 0.18 0.39 0.46 0.39 0.61 0.58 1.07 1.36 1.17 0.77 1.09 1.42
0.63 0.68 0.87 0.98 0.92 0.94 1.00 0.85 0.67 1.04 0.68 0.18 0.12 0.10 0.05 0.04 0.12 0.09 0.11 0.17 0.11 0.09 0.15 0.43 0.41 0.04 0.07 0.26 0.38 0.28 0.24 0.13 0.11 0.05 0.28 0.36 0.38 0.67 0.74 1.26 1.48 1.58 1.36 1.15 1.12
0.94 0.99 1.16 1.26 1.34 1.08 0.74 0.57 0.52 0.82 1.22 0.27 0.07 0.05 0.01 0.08 0.11 0.12 0.16 0.33 0.17 0.11 0.14 0.20 0.13 0.04 0.10 0.38 0.61 0.48 0.35 0.13 0.09 0.08 0.22 0.32 0.65 0.84 0.78 1.11 0.80 1.03 1.49 1.71 1.41
1.11 1.19 1.39 1.48 1.49 0.87 0.85 0.78 0.78 1.41 2.41 0.48 0.04 0.06 0.01 0.09 0.16 0.06 0.13 0.40 0.56 0.14 0.14 0.22 0.07 0.15 0.19 0.23 0.45 0.61 0.23 0.21 0.16 0.47 0.70 0.39 1.02 0.45 0.46 0.66 0.24 0.46 0.91 1.66 1.22
1.49 1.56 1.79 2.09 1.46 1.35 1.05 1.08 1.55 2.55 3.58 0.38 0.07 0.04 0.03 0.15 0.13 0.08 0.18 0.52 0.67 0.45 0.29 0.19 0.04 0.25 0.32 0.17 0.24 0.37 0.24 0.27 0.34 0.72 0.72 0.56 1.14 0.31 0.22 0.28 0.19 0.37 0.65 1.13 1.63
1.86 2.38 2.23 2.22 2.19 1.29 1.09 1.87 2.73 4.20 3.15 0.34 0.17 0.12 0.18 0.16 0.06 0.25 0.47 0.72 0.78 0.83 0.66 0.20 0.07 0.15 0.20 0.10 0.16 0.33 0.82 0.64 0.86 1.20 2.20 0.81 0.66 0.27 0.34 0.37 0.22 0.47 0.59 0.65 1.43
2.45 2.67 2.93 2.32 2.00 1.60 2.26 3.63 4.85 3.74 0.88 0.46 0.25 0.25 0.29 0.26 0.18 0.31 1.12 1.24 1.05 1.47 1.24 0.54 0.16 0.04 0.18 0.29 0.49 0.94 1.51 2.48 2.50 2.68 2.09 0.46 0.42 0.44 0.27 0.23 0.47 0.69 0.75 0.81 1.30
2.35 2.52 2.07 1.84 1.66 2.36 3.67 4.98 5.20 1.13 0.35 0.27 0.20 0.27 0.35 0.40 0.35 0.20 0.51 0.94 0.95 1.02 1.32 0.74 0.39 0.10 0.17 0.23 0.47 0.98 1.50 1.95 1.47 1.11 0.58 0.33 0.59 0.30 0.15 0.19 0.48 0.67 0.80 0.80 0.79
2.41 2.19 2.19 1.72 1.62 2.74 4.65 5.66 2.37 0.58 0.33 0.26 0.24 0.47 0.46 0.67 0.91 0.61 0.31 0.56 0.94 1.26 1.71 1.39 0.35 0.08 0.04 0.04 0.20 0.62 1.21 1.04 0.94 0.49 0.51 0.32 0.21 0.18 0.07 0.07 0.17 0.37 0.69 0.88 0.81
2.82 2.77 2.60 1.97 2.44 3.49 4.95 3.47 0.85 0.26 0.37 0.40 0.69 0.57 0.61 0.61 1.02 1.22 0.83 0.60 0.74 0.98 1.53 1.71 1.33 0.19 0.22 0.26 0.25 0.41 0.51 1.04 1.70 1.71 0.87 0.22 0.16 0.19 0.16 0.17 0.13 0.30 0.62 0.96 0.80
3.63 3.90 2.32 2.37 3.64 4.83 4.57 1.52 0.32 0.16 0.42 0.88 0.60 0.66 0.51 0.80 0.98 1.20 1.42 0.67 0.68 0.64 0.97 2.03 1.92 0.79 0.47 0.52 0.33 0.49 1.08 0.96 1.37 1.13 0.97 0.50 0.26 0.43 0.47 0.46 0.37 0.48 0.73 1.23 1.21
4.18 3.91 2.18 2.73 4.73 4.38 1.98 0.59 0.32 0.25 0.52 0.77 0.79 0.60 0.56 0.62 1.27 1.29 0.92 1.04 0.69 0.64 0.82 1.19 2.20 1.36 0.53 0.41 0.32 0.31 0.74 1.01 1.36 1.20 0.80 0.76 0.42 0.39 0.44 0.47 0.44 0.62 0.70 1.23 1.45
4.90 3.10 3.00 3.21 3.81 2.28 0.97 0.55 0.63 0.43 0.62 0.86 0.65 0.61 0.51 0.53 1.28 0.79 0.80 0.60 0.78 0.93 1.28 1.33 2.16 1.95 1.44 1.38 0.68 0.66 0.37 0.62 0.75 0.88 0.80 0.82 0.40 0.21 0.31 0.36 0.39 0.74 0.67 1.17 1.37
5.77 4.10 3.93 4.39 2.49 1.17 1.09 0.96 0.76 0.43 0.54 0.55 0.49 0.53 0.69 0.51 0.69 0.84 0.54 0.47 0.49 0.95 1.17 1.33 1.56 1.37 1.10 1.48 1.42 1.13 0.81 0.52 0.73 0.81 0.72 0.54 0.25 0.18 0.18 0.27 0.31 0.53 0.83 1.23 1.40
6.02 3.76 2.30 2.85 1.99 1.25 1.69 1.40 0.52 0.63 0.73 0.71 0.63 0.49 0.85 1.13 0.69 0.63 0.57 0.63 0.61 0.88 1.29 1.79 1.49 0.84 0.25 0.23 0.54 0.61 0.75 0.67 0.76 0.52 0.65 0.38 0.31 0.24 0.33 0.37 0.48 0.67 0.85 1.03 1.16
5.23 2.65 2.08 1.44 0.91 1.58 2.14 1.42 0.56 0.88 1.02 0.68 0.73 0.42 0.61 0.77 0.80 0.88 1.05 1.03 1.09 1.14 1.76 1.89 1.61 0.69 0.43 0.19 0.31 0.36 0.38 0.58 0.64 0.34 0.22 0.23 0.28 0.21 0.25 0.28 0.48 0.73 0.88 0.98 0.98
3.53 2.28 3.05 2.92 1.62 1.90 1.64 1.01 0.94 1.10 0.93 0.33 0.40 0.78 0.56 0.41 0.43 0.71 1.01 1.07 1.16 1.39 1.63 1.76 1.56 0.91 0.82 0.39 0.83 0.96 0.70 0.51 0.50 0.48 0.30 0.31 0.27 0.12 0.16 0.24 0.70 0.85 0.96 1.02 1.00

GFSSW_prec_precacc_327.txt.gz
Total_Precipitation_Accumulation
0.12 0.15 0.18 0.18 0.18 0.20 0.23 0.23 0.23 0.21 0.21 0.19 0.19 0.18 0.19 0.22 0.16 0.09 0.06 0.07 0.19 0.20 0.08 0.01 0.02 0.04 0.24 0.34 0.65 1.10 1.00 0.52 0.36 0.14 0.05 0.09 0.12 0.09 0.07 0.07 0.09 0.13 0.08 0.25 0.49
0.10 0.14 0.18 0.17 0.18 0.21 0.22 0.20 0.19 0.19 0.20 0.22 0.26 0.28 0.33 0.31 0.09 0.06 0.10 0.14 0.10 0.14 0.02 0.02 0.02 0.06 0.18 0.27 0.66 1.14 0.68 0.15 0.11 0.27 0.21 0.23 0.25 0.20 0.18 0.15 0.15 0.14 0.19 0.52 0.68
0.13 0.15 0.15 0.17 0.20 0.20 0.19 0.20 0.19 0.19 0.18 0.23 0.29 0.41 0.51 0.22 0.05 0.07 0.11 0.07 0.14 0.07 0.02 0.01 0.04 0.16 0.17 0.26 0.42 0.56 0.39 0.09 0.05 0.13 0.44 0.50 0.43 0.31 0.36 0.27 0.21 0.22 0.44 0.62 0.91
0.18 0.19 0.16 0.18 0.23 0.21 0.20 0.18 0.20 0.21 0.24 0.25 0.35 0.49 0.39 0.19 0.07 0.03 0.12 0.07 0.06 0.03 0.04 0.04 0.11 0.23 0.20 0.20 0.21 0.39 0.10 0.15 0.10 0.13 0.31 0.57 0.68 0.42 0.42 0.32 0.20 0.29 0.59 0.88 1.11
0.21 0.23 0.26 0.28 0.26 0.24 0.19 0.17 0.19 0.24 0.26 0.28 0.40 0.54 0.39 0.19 0.05 0.00 0.00 0.02 0.03 0.05 0.07 0.08 0.13 0.19 0.29 0.17 0.23 0.29 0.13 0.24 0.24 0.28 0.33 0.46 0.55 0.74 0.52 0.36 0.29 0.32 0.47 0.93 1.19
0.28 0.33 0.33 0.34 0.34 0.30 0.23 0.26 0.28 0.29 0.27 0.29 0.49 0.53 0.42 0.18 0.00 0.00 0.00 0.00 0.01 0.05 0.14 0.18 0.17 0.20 0.30 0.23 0.31 0.19 0.15 0.18 0.26 0.43 0.47 0.63 0.50 0.77 0.66 0.56 0.31 0.30 0.32 0.80 1.09
0.28 0.33 0.42 0.39 0.31 0.32 0.40 0.41 0.36 0.28 0.29 0.38 0.52 0.48 0.41 0.08 0.00 0.00 0.01 0.04 0.04 0.07 0.07 0.19 0.29 0.39 0.33 0.31 0.20 0.19 0.32 0.33 0.23 0.35 0.52 0.82 0.76 0.62 0.55 0.94 0.58 0.19 0.25 0.65 1.10
0.31 0.35 0.38 0.37 0.46 0.47 0.38 0.33 0.41 0.43 0.43 0.43 0.37 0.52 0.35 0.00 0.00 0.00 0.00 0.03 0.08 0.13 0.15 0.22 0.43 0.39 0.35 0.31 0.19 0.30 0.62 0.54 0.27 0.35 0.66 1.29 1.05 0.22 0.46 1.12 0.85 0.19 0.24 0.48 0.66
0.44 0.40 0.37 0.38 0.40 0.46 0.46 0.46 0.42 0.39 0.47 0.46 0.46 0.56 0.21 0.00 0.00 0.00 0.00 0.00 0.05 0.16 0.21 0.31 0.52 0.52 0.46 0.49 0.53 0.53 0.42 0.17 0.17 0.25 0.70 1.13 0.89 0.38 0.42 1.06 1.12 0.48 0.24 0.44 0.66
0.47 0.46 0.44 0.43 0.50 0.68 0.72 0.61 0.47 0.46 0.33 0.46 0.75 0.93 0.18 0.00 0.00 0.00 0.00 0.01 0.03 0.17 0.39 0.41 0.59 0.70 0.70 0.88 0.65 0.24 0.20 0.13 0.19 0.17 0.41 0.63 0.61 0.42 0.50 0.98 1.39 0.90 0.44 0.86 1.35
0.50 0.55 0.57 0.63 0.66 0.88 1.05 0.93 0.96 0.84 0.72 0.36 0.31 0.26 0.06 0.03 0.05 0.02 0.01 0.02 0.05 0.20 0.19 0.30 0.58 0.58 0.35 0.42 0.21 0.15 0.21 0.21 0.08 0.18 0.39 0.46 0.39 0.61 0.58 1.07 1.36 1.17 0.77 1.09 1.42
0.65 0.69 0.88 0.99 0.93 0.94 1.00 0.85 0.67 1.04 0.68 0.18 0.12 0.10 0.05 0.04 0.12 0.09 0.11 0.17 0.11 0.09 0.15 0.43 0.41 0.04 0.07 0.26 0.38 0.28 0.24 0.13 0.11 0.05 0.28 0.36 0.38 0.67 0.74 1.26 1.48 1.58 1.36 1.15 1.12
0.96 1.01 1.17 1.27 1.34 1.08 0.75 0.57 0.52 0.82 1.23 0.27 0.07 0.05 0.01 0.08 0.11 0.12 0.16 0.33 0.17 0.11 0.14 0.20 0.13 0.04 0.10 0.38 0.61 0.48 0.35 0.13 0.09 0.08 0.22 0.32 0.65 0.84 0.78 1.11 0.80 1.03 1.49 1.71 1.41
1.14 1.21 1.41 1.49 1.49 0.89 0.86 0.79 0.78 1.43 2.41 0.48 0.04 0.06 0.01 0.09 0.16 0.06 0.13 0.40 0.56 0.14 0.14 0.22 0.07 0.15 0.19 0.23 0.45 0.61 0.23 0.21 0.16 0.47 0.70 0.39 1.02 0.45 0.46 0.66 0.24 0.46 0.91 1.66 1.22
1.51 1.58 1.81 2.13 1.48 1.36 1.08 1.11 1.60 2.61 3.59 0.38 0.07 0.04 0.03 0.15 0.13 0.08 0.18 0.52 0.67 0.45 0.29 0.19 0.04 0.25 0.32 0.17 0.24 0.37 0.24 0.27 0.34 0.72 0.72 0.56 1.14 0.31 0.22 0.28 0.19 0.37 0.65 1.13 1.63
1.87 2.40 2.27 2.26 2.21 1.30 1.14 1.92 2.84 4.34 3.17 0.34 0.17 0.12 0.18 0.16 0.06 0.25 0.47 0.72 0.78 0.83 0.66 0.20 0.07 0.15 0.20 0.10 0.16 0.33 0.82 0.64 0.86 1.20 2.20 0.81 0.66 0.27 0.34 0.37 0.22 0.47 0.59 0.65 1.43
2.46 2.68 2.95 2.36 2.03 1.68 2.35 3.79 5.07 3.90 0.89 0.46 0.25 0.25 0.29 0.26 0.18 0.31 1.12 1.24 1.05 1.47 1.24 0.54 0.16 0.04 0.18 0.29 0.49 0.94 1.51 2.49 2.50 2.69 2.09 0.46 0.42 0.44 0.27 0.23 0.47 0.69 0.75 0.81 1.30
2.36 2.53 2.08 1.86 1.74 2.53 3.93 5.30 5.50 1.19 0.36 0.27 0.22 0.27 0.36 0.41 0.35 0.20 0.51 0.94 0.95 1.02 1.32 0.74 0.39 0.10 0.17 0.23 0.47 0.98 1.50 1.96 1.49 1.12 0.59 0.33 0.59 0.30 0.15 0.19 0.48 0.67 0.80 0.80 0.79
2.43 2.19 2.19 1.72 1.65 2.92 5.02 5.83 2.48 0.65 0.34 0.30 0.27 0.53 0.48 0.67 0.91 0.61 0.31 0.56 0.94 1.26 1.71 1.39 0.35 0.08 0.04 0.04 0.20 0.62 1.21 1.04 0.94 0.49 0.51 0.32 0.21 0.18 0.07 0.07 0.17 0.37 0.69 0.88 0.81
2.84 2.79 2.60 1.98 2.47 3.68 5.26 3.55 0.86 0.27 0.45 0.49 0.75 0.61 0.67 0.64 1.03 1.23 0.83 0.60 0.74 0.98 1.53 1.71 1.33 0.19 0.22 0.26 0.25 0.41 0.51 1.05 1.71 1.73 0.87 0.22 0.16 0.19 0.16 0.17 0.13 0.30 0.62 0.96 0.80
3.65 3.92 2.34 2.38 3.71 5.00 4.84 1.54 0.32 0.18 0.50 0.98 0.68 0.71 0.54 0.81 0.98 1.20 1.42 0.67 0.68 0.65 0.97 2.03 1.92 0.79 0.47 0.52 0.33 0.49 1.08 0.96 1.39 1.13 0.97 0.50 0.26 0.43 0.47 0.46 0.37 0.48 0.73 1.23 1.21
4.21 3.96 2.21 2.92 4.99 4.42 2.00 0.61 0.36 0.37 0.62 0.82 0.84 0.64 0.59 0.62 1.28 1.30 0.92 1.05 0.70 0.64 0.82 1.19 2.20 1.36 0.53 0.41 0.32 0.31 0.74 1.02 1.40 1.23 0.80 0.76 0.42 0.39 0.44 0.47 0.44 0.62 0.70 1.23 1.45
4.94 3.15 3.03 3.49 4.15 2.35 0.98 0.57 0.73 0.54 0.70 0.93 0.72 0.65 0.55 0.55 1.28 0.80 0.83 0.60 0.78 0.93 1.28 1.33 2.16 1.95 1.44 1.39 0.68 0.66 0.37 0.62 0.76 0.90 0.81 0.82 0.40 0.21 0.31 0.36 0.39 0.74 0.67 1.17 1.37
5.82 4.19 3.98 4.50 2.73 1.32 1.20 1.01 0.80 0.47 0.60 0.60 0.53 0.55 0.72 0.54 0.70 0.86 0.58 0.48 0.49 0.95 1.18 1.34 1.56 1.37 1.10 1.50 1.43 1.13 0.81 0.52 0.75 0.83 0.72 0.54 0.25 0.18 0.18 0.27 0.31 0.53 0.83 1.23 1.40
6.06 3.82 2.46 3.01 2.14 1.36 1.82 1.44 0.53 0.65 0.75 0.74 0.64 0.51 0.88 1.16 0.72 0.65 0.60 0.64 0.61 0.88 1.30 1.80 1.49 0.84 0.25 0.23 0.54 0.61 0.75 0.68 0.79 0.53 0.67 0.38 0.31 0.24 0.33 0.37 0.48 0.67 0.85 1.04 1.16
5.27 2.70 2.19 1.53 0.95 1.63 2.15 1.43 0.56 0.89 1.03 0.70 0.75 0.45 0.63 0.78 0.81 0.88 1.06 1.03 1.09 1.15 1.76 1.90 1.61 0.69 0.43 0.19 0.31 0.36 0.38 0.59 0.65 0.36 0.24 0.24 0.28 0.21 0.25 0.28 0.48 0.73 0.88 0.98 1.00
3.58 2.35 3.24 3.00 1.72 1.97 1.67 1.02 0.95 1.11 0.98 0.36 0.43 0.81 0.60 0.43 0.43 0.71 1.01 1.07 1.17 1.40 1.64 1.77 1.57 0.92 0.82 0.39 0.83 0.97 0.71 0.52 0.52 0.49 0.31 0.33 0.27 0.12 0.16 0.24 0.70 0.85 0.96 1.03 1.02

GFSSW_prec_precacc_330.txt.gz
Total_Precipitation_Accumulation
0.12 0.15 0.18 0.18 0.18 0.20 0.23 0.23 0.23 0.21 0.21 0.19 0.19 0.18 0.19 0.23 0.16 0.09 0.06 0.07 0.19 0.20 0.08 0.01 0.02 0.04 0.24 0.34 0.65 1.10 1.00 0.52 0.36 0.14 0.05 0.09 0.12 0.09 0.07 0.07 0.09 0.13 0.08 0.25 0.49
0.10 0.14 0.18 0.17 0.18 0.21 0.22 0.20 0.19 0.19 0.20 0.22 0.26 0.28 0.34 0.32 0.09 0.06 0.10 0.14 0.10 0.14 0.02 0.02 0.02 0.06 0.18 0.27 0.66 1.14 0.68 0.15 0.11 0.27 0.21 0.23 0.25 0.20 0.18 0.15 0.15 0.14 0.19 0.52 0.68
0.13 0.15 0.15 0.17 0.20 0.20 0.19 0.20 0.19 0.19 0.18 0.23 0.29 0.41 0.52 0.22 0.05 0.07 0.11 0.07 0.14 0.07 0.02 0.01 0.04 0.16 0.17 0.26 0.42 0.56 0.39 0.09 0.05 0.13 0.44 0.50 0.43 0.31 0.36 0.27 0.21 0.22 0.44 0.62 0.91
0.18 0.19 0.16 0.18 0.23 0.21 0.20 0.18 0.20 0.22 0.25 0.25 0.35 0.49 0.39 0.19 0.07 0.03 0.12 0.07 0.06 0.03 0.04 0.04 0.11 0.23 0.20 0.20 0.21 0.39 0.10 0.15 0.10 0.13 0.31 0.57 0.68 0.42 0.42 0.32 0.20 0.29 0.59 0.88 1.11
0.21 0.23 0.26 0.28 0.26 0.24 0.19 0.17 0.19 0.24 0.26 0.29 0.40 0.54 0.39 0.19 0.05 0.00 0.00 0.02 0.03 0.05 0.07 0.08 0.13 0.19 0.29 0.17 0.23 0.29 0.13 0.24 0.24 0.28 0.33 0.46 0.55 0.74 0.52 0.36 0.29 0.32 0.47 0.93 1.19
0.29 0.33 0.33 0.34 0.34 0.30 0.23 0.26 0.28 0.29 0.27 0.29 0.49 0.53 0.42 0.18 0.00 0.00 0.00 0.00 0.01 0.05 0.14 0.18 0.17 0.20 0.30 0.23 0.31 0.19 0.15 0.18 0.26 0.43 0.47 0.63 0.50 0.77 0.66 0.56 0.31 0.30 0.32 0.80 1.09
0.29 0.33 0.43 0.40 0.31 0.32 0.40 0.41 0.36 0.28 0.29 0.38 0.53 0.48 0.41 0.08 0.00 0.00 0.01 0.04 0.04 0.07 0.07 0.19 0.29 0.39 0.33 0.31 0.20 0.19 0.32 0.33 0.23 0.35 0.52 0.82 0.76 0.62 0.55 0.94 0.58 0.19 0.25 0.65 1.10
0.32 0.36 0.39 0.37 0.46 0.47 0.38 0.33 0.41 0.43 0.43 0.44 0.38 0.52 0.35 0.00 0.00 0.00 0.00 0.03 0.08 0.13 0.15 0.22 0.43 0.39 0.35 0.31 0.19 0.30 0.62 0.54 0.27 0.35 0.66 1.29 1.05 0.22 0.46 1.12 0.85 0.19 0.24 0.48 0.66
0.44 0.41 0.38 0.39 0.41 0.46 0.46 0.46 0.42 0.39 0.47 0.47 0.47 0.57 0.21 0.00 0.00 0.00 0.00 0.00 0.05 0.16 0.21 0.31 0.52 0.52 0.46 0.49 0.53 0.53 0.42 0.17 0.17 0.25 0.70 1.13 0.89 0.38 0.42 1.06 1.12 0.48 0.24 0.44 0.66
0.47 0.46 0.45 0.43 0.51 0.68 0.72 0.61 0.47 0.46 0.33 0.47 0.76 0.93 0.18 0.00 0.00 0.00 0.00 0.01 0.03 0.17 0.39 0.41 0.59 0.70 0.70 0.88 0.65 0.24 0.20 0.13 0.19 0.17 0.41 0.63 0.61 0.42 0.50 0.98 1.39 0.90 0.44 0.86 1.35
0.50 0.56 0.57 0.63 0.66 0.88 1.05 0.93 0.96 0.85 0.73 0.36 0.31 0.26 0.06 0.03 0.05 0.02 0.01 0.02 0.05 0.20 0.19 0.30 0.58 0.58 0.35 0.42 0.21 0.15 0.21 0.21 0.08 0.18 0.39 0.46 0.39 0.61 0.58 1.07 1.36 1.17 0.77 1.09 1.42
0.66 0.69 0.88 0.99 0.93 0.94 1.00 0.85 0.68 1.06 0.70 0.18 0.12 0.10 0.05 0.04 0.12 0.09 0.11 0.17 0.11 0.09 0.15 0.43 0.41 0.04 0.07 0.26 0.38 0.28 0.24 0.13 0.11 0.05 0.28 0.36 0.38 0.67 0.74 1.26 1.48 1.58 1.36 1.15 1.12
0.96 1.02 1.17 1.27 1.34 1.08 0.75 0.60 0.55 0.84 1.26 0.27 0.07 0.05 0.01 0.08 0.11 0.12 0.16 0.33 0.17 0.11 0.14 0.20 0.13 0.04 0.10 0.38 0.61 0.48 0.35 0.13 0.09 0.08 0.22 0.32 0.65 0.84 0.78 1.11 0.80 1.03 1.49 1.71 1.41
1.14 1.21 1.41 1.49 1.50 0.89 0.86 0.83 0.80 1.46 2.49 0.48 0.04 0.06 0.01 0.09 0.16 0.06 0.13 0.40 0.56 0.14 0.14 0.22 0.07 0.15 0.19 0.23 0.45 0.61 0.23 0.21 0.16 0.47 0.70 0.39 1.02 0.45 0.46 0.66 0.24 0.46 0.91 1.66 1.22
1.51 1.58 1.81 2.14 1.49 1.36 1.08 1.16 1.64 2.67 3.68 0.38 0.07 0.04 0.03 0.15 0.13 0.08 0.18 0.52 0.67 0.45 0.29 0.19 0.04 0.25 0.32 0.17 0.24 0.37 0.24 0.27 0.34 0.72 0.72 0.56 1.14 0.31 0.22 0.28 0.19 0.37 0.65 1.13 1.63
1.87 2.40 2.27 2.26 2.22 1.31 1.16 2.01 2.90 4.44 3.28 0.34 0.17 0.12 0.18 0.17 0.06 0.25 0.47 0.72 0.78 0.83 0.66 0.20 0.07 0.15 0.20 0.10 0.16 0.33 0.82 0.64 0.86 1.20 2.20 0.81 0.66 0.27 0.34 0.37 0.22 0.47 0.59 0.65 1.43
2.46 2.68 2.95 2.36 2.04 1.71 2.41 3.89 5.16 3.97 0.90 0.47 0.25 0.25 0.29 0.27 0.19 0.31 1.12 1.24 1.05 1.48 1.24 0.54 0.16 0.04 0.18 0.29 0.49 0.94 1.51 2.50 2.51 2.69 2.09 0.46 0.42 0.44 0.27 0.23 0.47 0.69 0.75 0.81 1.30
2.36 2.53 2.08 1.86 1.74 2.56 3.96 5.46 5.69 1.22 0.42 0.36 0.28 0.29 0.37 0.46 0.39 0.21 0.51 0.94 0.96 1.03 1.33 0.74 0.39 0.10 0.17 0.23 0.47 0.98 1.50 1.97 1.50 1.13 0.60 0.33 0.59 0.30 0.15 0.19 0.48 0.67 0.80 0.80 0.79
2.43 2.19 2.20 1.72 1.66 2.94 5.06 5.97 2.55 0.68 0.37 0.36 0.32 0.60 0.54 0.76 1.04 0.66 0.33 0.60 0.96 1.26 1.71 1.39 0.35 0.08 0.04 0.04 0.20 0.62 1.21 1.04 0.94 0.49 0.51 0.32 0.21 0.18 0.07 0.07 0.17 0.37 0.69 0.88 0.81
2.84 2.79 2.60 1.98 2.49 3.70 5.29 3.59 0.87 0.27 0.46 0.50 0.77 0.64 0.75 0.72 1.10 1.26 0.87 0.61 0.74 0.98 1.53 1.71 1.33 0.19 0.22 0.26 0.25 0.41 0.51 1.05 1.71 1.73 0.88 0.22 0.16 0.19 0.16 0.17 0.13 0.30 0.62 0.96 0.80
3.65 3.92 2.34 2.38 3.72 5.03 4.89 1.58 0.33 0.19 0.51 0.99 0.71 0.76 0.58 0.99 1.04 1.24 1.43 0.68 0.68 0.65 0.97 2.03 1.93 0.80 0.47 0.52 0.33 0.49 1.08 0.96 1.40 1.14 0.98 0.50 0.26 0.43 0.47 0.46 0.37 0.48 0.73 1.23 1.21
4.21 3.97 2.21 2.92 5.01 4.45 2.02 0.63 0.37 0.38 0.63 0.84 0.87 0.67 0.64 0.68 1.29 1.31 0.93 1.05 0.70 0.64 0.82 1.19 2.21 1.37 0.53 0.41 0.32 0.31 0.74 1.02 1.41 1.24 0.80 0.76 0.42 0.39 0.44 0.47 0.44 0.62 0.70 1.23 1.45
4.95 3.15 3.03 3.49 4.20 2.49 1.06 0.58 0.74 0.55 0.71 0.94 0.76 0.69 0.57 0.60 1.29 0.81 0.84 0.61 0.78 0.93 1.29 1.33 2.16 1.96 1.45 1.40 0.68 0.66 0.37 0.62 0.76 0.91 0.81 0.82 0.40 0.21 0.31 0.36 0.39 0.74 0.67 1.17 1.37
5.83 4.19 4.00 4.50 2.75 1.41 1.25 1.05 0.83 0.52 0.63 0.62 0.56 0.59 0.74 0.56 0.71 0.87 0.59 0.49 0.49 0.95 1.18 1.34 1.56 1.37 1.11 1.51 1.43 1.13 0.81 0.52 0.76 0.84 0.72 0.54 0.25 0.18 0.18 0.27 0.31 0.53 0.83 1.23 1.40
6.08 3.83 2.47 3.02 2.14 1.37 1.85 1.48 0.55 0.68 0.76 0.76 0.65 0.52 0.90 1.16 0.73 0.66 0.63 0.66 0.62 0.88 1.30 1.80 1.50 0.84 0.25 0.23 0.54 0.61 0.75 0.68 0.79 0.53 0.67 0.39 0.31 0.24 0.33 0.37 0.48 0.67 0.85 1.04 1.16
5.31 2.74 2.20 1.53 0.96 1.64 2.17 1.47 0.59 0.91 1.03 0.71 0.75 0.46 0.64 0.80 0.83 0.89 1.07 1.04 1.10 1.15 1.76 1.91 1.62 0.69 0.43 0.19 0.31 0.36 0.38 0.59 0.65 0.36 0.24 0.24 0.28 0.21 0.25 0.28 0.48 0.73 0.88 0.98 1.00
3.60 2.38 3.25 3.00 1.73 1.99 1.73 1.08 0.97 1.13 1.00 0.40 0.45 0.82 0.62 0.44 0.43 0.71 1.01 1.07 1.17 1.40 1.65 1.78 1.58 0.93 0.83 0.39 0.83 0.98 0.71 0.52 0.52 0.49 0.31 0.33 0.27 0.12 0.16 0.24 0.70 0.85 0.96 1.03 1.02